User: anonymous   Login
Location: Stigler
(35.2540°N, 95.1230°W)
Time: 13:56:10
(UTC-06:00)
Language:

Cosmos 1805 - Orbit

View from above orbital plane
View from above orbital plane
View from above satellite
View from above satellite

Ground track
Ground track

The orbit data is extracted from the following two-line orbital elements,

1 17191U 86097A   17348.72374705 +.00000197 +00000-0 +97061-5 0  9992
2 17191 082.4734 211.6412 0005070 153.9194 206.2293 15.11983438690631
Epoch (UTC): 14 December 2017 17:22:11
Eccentricity: 0.0005070
inclination: 82.4734°
perigee height: 526 km
apogee height: 533 km
right ascension of ascending node: 211.6412°
argument of perigee: 153.9194°
revolutions per day: 15.11983438
mean anomaly at epoch: 206.2293°
orbit number at epoch: 69063

The dashed part of the orbit path shows where the satellite is in the earth's shadow,  

DLR